Time,TemperatureF,DewpointF,PressureIn,WindDirection,WindDirectionDegrees,WindSpeedMPH,WindSpeedGustMPH,Humidity,HourlyPrecipIn,Conditions,Clouds,dailyrainin,SolarRadiationWatts/m^2,SoftwareType,DateUTC
2013-07-22 00:11:00,79.0,74.0,-100.00,NNW,334,4.0,8.0,85,0.00,,,0.17,0.000000,,2013-07-22 07:11:00,
2013-07-22 00:22:00,79.0,74.0,-100.00,NNW,334,4.0,8.0,85,0.00,,,0.17,0.000000,,2013-07-22 07:22:00,
2013-07-22 00:33:00,79.0,74.0,-100.00,NNW,334,4.0,8.0,85,0.00,,,0.17,0.000000,,2013-07-22 07:33:00,
2013-07-22 00:43:00,79.0,74.0,-100.00,NNW,334,4.0,8.0,85,0.00,,,0.17,0.000000,,2013-07-22 07:43:00,
2013-07-22 01:22:00,79.0,74.0,-100.00,NW,325,4.0,7.0,85,0.00,,,0.17,0.000000,,2013-07-22 08:22:00,
2013-07-22 01:32:00,79.0,74.0,-100.00,NW,325,4.0,7.0,85,0.00,,,0.17,0.000000,,2013-07-22 08:32:00,
2013-07-22 01:43:00,79.0,74.0,-100.00,NW,325,4.0,7.0,85,0.00,,,0.17,0.000000,,2013-07-22 08:43:00,
2013-07-22 02:11:00,78.0,74.0,-100.00,North,352,3.0,6.0,87,0.00,,,0.17,0.000000,,2013-07-22 09:11:00,
2013-07-22 02:22:00,78.0,74.0,-100.00,North,352,3.0,6.0,87,0.00,,,0.17,0.000000,,2013-07-22 09:22:00,
2013-07-22 02:33:00,78.0,74.0,-100.00,North,352,3.0,6.0,87,0.00,,,0.17,0.000000,,2013-07-22 09:33:00,
2013-07-22 02:42:00,78.0,74.0,-100.00,North,352,3.0,6.0,87,0.00,,,0.17,0.000000,,2013-07-22 09:42:00,
2013-07-22 03:11:00,78.0,74.0,-100.00,NE,50,2.0,4.0,87,0.00,,,0.17,0.000000,,2013-07-22 10:11:00,
2013-07-22 03:22:00,78.0,74.0,-100.00,NE,50,2.0,4.0,87,0.00,,,0.17,0.000000,,2013-07-22 10:22:00,
2013-07-22 03:32:00,78.0,74.0,-100.00,NE,50,2.0,4.0,87,0.00,,,0.17,0.000000,,2013-07-22 10:32:00,
2013-07-22 03:43:00,78.0,74.0,-100.00,NE,50,2.0,4.0,87,0.00,,,0.17,0.000000,,2013-07-22 10:43:00,
2013-07-22 04:11:00,76.0,74.0,-100.00,SE,132,0.0,0.0,93,0.00,,,0.17,0.000000,,2013-07-22 11:11:00,
2013-07-22 04:22:00,76.0,74.0,-100.00,SE,132,0.0,0.0,93,0.00,,,0.17,0.000000,,2013-07-22 11:22:00,
2013-07-22 04:32:00,76.0,74.0,-100.00,SE,132,0.0,0.0,93,0.00,,,0.17,0.000000,,2013-07-22 11:32:00,
2013-07-22 04:43:00,76.0,74.0,-100.00,SE,132,0.0,0.0,93,0.00,,,0.17,0.000000,,2013-07-22 11:43:00,
2013-07-22 05:11:00,74.0,73.0,-100.00,SSW,195,4.0,4.0,96,0.00,,,0.17,0.000000,,2013-07-22 12:11:00,
2013-07-22 05:22:00,74.0,73.0,-100.00,SSW,195,4.0,4.0,96,0.00,,,0.17,0.000000,,2013-07-22 12:22:00,
2013-07-22 05:32:00,74.0,73.0,-100.00,SSW,195,4.0,4.0,96,0.00,,,0.17,0.000000,,2013-07-22 12:32:00,
2013-07-22 05:43:00,74.0,73.0,-100.00,SSW,195,4.0,4.0,96,0.00,,,0.17,0.000000,,2013-07-22 12:43:00,
2013-07-22 06:11:00,75.0,74.0,-100.00,South,175,3.0,5.0,96,0.00,,,0.17,0.000000,,2013-07-22 13:11:00,
2013-07-22 06:22:00,75.0,74.0,-100.00,South,175,3.0,5.0,96,0.00,,,0.17,0.000000,,2013-07-22 13:22:00,
2013-07-22 06:32:00,75.0,74.0,-100.00,South,175,3.0,5.0,96,0.00,,,0.17,0.000000,,2013-07-22 13:32:00,
2013-07-22 06:43:00,75.0,74.0,-100.00,South,175,3.0,5.0,96,0.00,,,0.17,0.000000,,2013-07-22 13:43:00,
2013-07-22 07:11:00,80.0,75.0,-100.00,ENE,67,2.0,6.0,84,0.00,,,0.17,61.000000,,2013-07-22 14:11:00,
2013-07-22 07:22:00,80.0,75.0,-100.00,ENE,67,2.0,6.0,84,0.00,,,0.17,61.000000,,2013-07-22 14:22:00,
2013-07-22 07:32:00,80.0,75.0,-100.00,ENE,67,2.0,6.0,84,0.00,,,0.17,61.000000,,2013-07-22 14:32:00,
2013-07-22 07:42:00,80.0,75.0,-100.00,ENE,67,2.0,6.0,84,0.00,,,0.17,61.000000,,2013-07-22 14:42:00,
2013-07-22 08:22:00,86.0,77.0,-100.00,SSW,201,1.0,4.0,74,0.00,,,0.17,246.000000,,2013-07-22 15:22:00,
2013-07-22 08:32:00,86.0,77.0,-100.00,SSW,201,1.0,4.0,74,0.00,,,0.17,246.000000,,2013-07-22 15:32:00,
2013-07-22 08:42:00,86.0,77.0,-100.00,SSW,201,1.0,4.0,74,0.00,,,0.17,246.000000,,2013-07-22 15:42:00,
2013-07-22 09:11:00,89.0,74.0,-100.00,South,169,4.0,7.0,62,0.00,,,0.16,454.000000,,2013-07-22 16:11:00,
2013-07-22 09:21:00,89.0,74.0,-100.00,South,169,4.0,7.0,62,0.00,,,0.16,454.000000,,2013-07-22 16:21:00,
2013-07-22 09:32:00,89.0,74.0,-100.00,South,169,4.0,7.0,62,0.00,,,0.16,454.000000,,2013-07-22 16:32:00,
2013-07-22 09:43:00,89.0,74.0,-100.00,South,169,4.0,7.0,62,0.00,,,0.16,454.000000,,2013-07-22 16:43:00,
2013-07-22 10:11:00,91.0,74.0,-100.00,South,172,6.0,9.0,57,0.00,,,0.13,648.000000,,2013-07-22 17:11:00,
2013-07-22 10:23:00,91.0,74.0,-100.00,South,172,6.0,9.0,57,0.00,,,0.13,648.000000,,2013-07-22 17:23:00,
2013-07-22 10:32:00,91.0,74.0,-100.00,South,172,6.0,9.0,57,0.00,,,0.13,648.000000,,2013-07-22 17:32:00,
2013-07-22 10:43:00,91.0,74.0,-100.00,South,172,6.0,9.0,57,0.00,,,0.13,648.000000,,2013-07-22 17:43:00,
2013-07-22 11:13:00,93.0,72.0,-100.00,SE,140,6.0,11.0,51,0.00,,,0.08,842.000000,,2013-07-22 18:13:00,
2013-07-22 11:23:00,93.0,72.0,-100.00,SE,140,6.0,11.0,51,0.00,,,0.08,842.000000,,2013-07-22 18:23:00,
2013-07-22 11:33:00,93.0,72.0,-100.00,SE,140,6.0,11.0,51,0.00,,,0.08,842.000000,,2013-07-22 18:33:00,
2013-07-22 11:45:00,93.0,72.0,-100.00,SE,140,6.0,11.0,51,0.00,,,0.08,842.000000,,2013-07-22 18:45:00,
2013-07-22 12:22:00,94.0,71.0,-100.00,South,175,8.0,12.0,47,0.00,,,0.02,935.000000,,2013-07-22 19:22:00,
2013-07-22 12:33:00,94.0,71.0,-100.00,South,175,8.0,12.0,47,0.00,,,0.02,935.000000,,2013-07-22 19:33:00,
2013-07-22 12:43:00,94.0,71.0,-100.00,South,175,8.0,12.0,47,0.00,,,0.02,935.000000,,2013-07-22 19:43:00,
2013-07-22 13:22:00,97.0,67.0,-100.00,SSE,158,6.0,13.0,38,0.00,,,0.00,1003.000000,,2013-07-22 20:22:00,
2013-07-22 13:32:00,97.0,67.0,-100.00,SSE,158,6.0,13.0,38,0.00,,,0.00,1003.000000,,2013-07-22 20:32:00,
2013-07-22 13:43:00,97.0,67.0,-100.00,SSE,158,6.0,13.0,38,0.00,,,0.00,1003.000000,,2013-07-22 20:43:00,
2013-07-22 14:11:00,99.0,63.0,-100.00,South,172,5.0,13.0,31,0.00,,,0.00,1016.000000,,2013-07-22 21:11:00,
2013-07-22 14:22:00,99.0,63.0,-100.00,South,172,5.0,13.0,31,0.00,,,0.00,1016.000000,,2013-07-22 21:22:00,
2013-07-22 14:32:00,99.0,63.0,-100.00,South,172,5.0,13.0,31,0.00,,,0.00,1016.000000,,2013-07-22 21:32:00,
2013-07-22 14:43:00,99.0,63.0,-100.00,South,172,5.0,13.0,31,0.00,,,0.00,1016.000000,,2013-07-22 21:43:00,
2013-07-22 15:11:00,99.0,65.0,-100.00,South,189,8.0,14.0,33,0.00,,,0.00,936.000000,,2013-07-22 22:11:00,
2013-07-22 15:22:00,99.0,65.0,-100.00,South,189,8.0,14.0,33,0.00,,,0.00,936.000000,,2013-07-22 22:22:00,
2013-07-22 15:32:00,99.0,65.0,-100.00,South,189,8.0,14.0,33,0.00,,,0.00,936.000000,,2013-07-22 22:32:00,
2013-07-22 15:43:00,99.0,65.0,-100.00,South,189,8.0,14.0,33,0.00,,,0.00,936.000000,,2013-07-22 22:43:00,
2013-07-22 16:22:00,100.0,66.0,-100.00,South,179,7.0,15.0,33,0.00,,,0.00,810.000000,,2013-07-22 23:22:00,
2013-07-22 16:32:00,100.0,66.0,-100.00,South,179,7.0,15.0,33,0.00,,,0.00,810.000000,,2013-07-22 23:32:00,
2013-07-22 16:42:00,100.0,66.0,-100.00,South,179,7.0,15.0,33,0.00,,,0.00,810.000000,,2013-07-22 23:42:00,
2013-07-22 17:11:00,99.0,66.0,-100.00,SSE,155,7.0,15.0,34,0.00,,,0.00,618.000000,,2013-07-23 00:11:00,
2013-07-22 17:22:00,99.0,66.0,-100.00,SSE,155,7.0,15.0,34,0.00,,,0.00,618.000000,,2013-07-23 00:22:00,
2013-07-22 17:32:00,99.0,66.0,-100.00,SSE,155,7.0,15.0,34,0.00,,,0.00,618.000000,,2013-07-23 00:32:00,
2013-07-22 17:43:00,99.0,66.0,-100.00,SSE,155,7.0,15.0,34,0.00,,,0.00,618.000000,,2013-07-23 00:43:00,
2013-07-22 18:11:00,96.0,64.0,-100.00,SSE,165,7.0,12.0,35,0.00,,,0.00,279.000000,,2013-07-23 01:11:00,
2013-07-22 18:22:00,96.0,64.0,-100.00,SSE,165,7.0,12.0,35,0.00,,,0.00,279.000000,,2013-07-23 01:22:00,
2013-07-22 18:32:00,96.0,64.0,-100.00,SSE,165,7.0,12.0,35,0.00,,,0.00,279.000000,,2013-07-23 01:32:00,
2013-07-22 18:43:00,96.0,64.0,-100.00,SSE,165,7.0,12.0,35,0.00,,,0.00,279.000000,,2013-07-23 01:43:00,
2013-07-22 19:11:00,94.0,65.0,-100.00,SSE,156,5.0,10.0,39,0.00,,,0.00,102.000000,,2013-07-23 02:11:00,
2013-07-22 19:22:00,94.0,65.0,-100.00,SSE,156,5.0,10.0,39,0.00,,,0.00,102.000000,,2013-07-23 02:22:00,
2013-07-22 19:33:00,94.0,65.0,-100.00,SSE,156,5.0,10.0,39,0.00,,,0.00,102.000000,,2013-07-23 02:33:00,
2013-07-22 19:43:00,94.0,65.0,-100.00,SSE,156,5.0,10.0,39,0.00,,,0.00,102.000000,,2013-07-23 02:43:00,
2013-07-22 20:11:00,91.0,63.0,-100.00,SSE,157,5.0,7.0,39,0.00,,,0.00,42.000000,,2013-07-23 03:11:00,
2013-07-22 20:22:00,91.0,63.0,-100.00,SSE,157,5.0,7.0,39,0.00,,,0.00,42.000000,,2013-07-23 03:22:00,
2013-07-22 20:33:00,91.0,63.0,-100.00,SSE,157,5.0,7.0,39,0.00,,,0.00,42.000000,,2013-07-23 03:33:00,
2013-07-22 20:43:00,91.0,63.0,-100.00,SSE,157,5.0,7.0,39,0.00,,,0.00,42.000000,,2013-07-23 03:43:00,
2013-07-22 21:21:00,89.0,67.0,-100.00,SSW,204,6.0,8.0,48,0.00,,,0.00,0.000000,,2013-07-23 04:21:00,
2013-07-22 21:32:00,89.0,67.0,-100.00,SSW,204,6.0,8.0,48,0.00,,,0.00,0.000000,,2013-07-23 04:32:00,
2013-07-22 21:42:00,89.0,67.0,-100.00,SSW,204,6.0,8.0,48,0.00,,,0.00,0.000000,,2013-07-23 04:42:00,
2013-07-22 22:11:00,88.0,68.0,-100.00,South,185,4.0,8.0,51,0.00,,,0.00,0.000000,,2013-07-23 05:11:00,
2013-07-22 22:22:00,88.0,68.0,-100.00,South,185,4.0,8.0,51,0.00,,,0.00,0.000000,,2013-07-23 05:22:00,
2013-07-22 22:33:00,88.0,68.0,-100.00,South,185,4.0,8.0,51,0.00,,,0.00,0.000000,,2013-07-23 05:33:00,
2013-07-22 22:43:00,88.0,68.0,-100.00,South,185,4.0,8.0,51,0.00,,,0.00,0.000000,,2013-07-23 05:43:00,
2013-07-22 23:11:00,86.0,67.0,-100.00,SSE,152,4.0,5.0,54,0.00,,,0.00,0.000000,,2013-07-23 06:11:00,
2013-07-22 23:22:00,86.0,67.0,-100.00,SSE,152,4.0,5.0,54,0.00,,,0.00,0.000000,,2013-07-23 06:22:00,
2013-07-22 23:33:00,86.0,67.0,-100.00,SSE,152,4.0,5.0,54,0.00,,,0.00,0.000000,,2013-07-23 06:33:00,
2013-07-22 23:42:00,86.0,67.0,-100.00,SSE,152,4.0,5.0,54,0.00,,,0.00,0.000000,,2013-07-23 06:42:00,